Location: Unspecified
(0.0000°N, 0.0000°E)
Time: 14:09:48
(UTC+00:00)

A-11 Canister half - Pass Details

Date: 28 May 2026
Orbit: 1524 x 1684 km, 47.3° (Epoch: 7 June)

Event Time Altitude Azimuth Distance (km) Brightness Sun altitude
Rises 23:52:59 0° 297° (WNW) 4,899 - -68.5°
Reaches altitude 10° 23:56:37 10° 287° (WNW) 3,926 - -68.6°
Maximum altitude 00:05:09 31° 229° (SW) 2,630 - -68.5°
Drops below altitude 10° 00:13:46 10° 170° (S) 3,936 - -68.2°
Sets 00:17:28 0° 160° (SSE) 4,913 - -68.0°
